Regional Weather Roundup
Issued by NWS

Home | Current Version | Previous Version | Text Only | Print | Product List | Glossary On
Versions: 1 2 3 4 5 6 7 8 9 10 11 12 13 14 15 16 17 18 19 20 21 22 23 24 25 26 27 28 29 30 31 32 33 34 35 36 37 38 39 40 41 42 43 44 45 46 47 48 49 50
000
ASUS43 KMPX 031610
RWRMN
WEATHER ROUNDUP FOR MINNESOTA
NATIONAL WEATHER SERVICE TWIN CITIES/CHANHASSEN MN
1100 AM CDT THU SEP 03 2015


NOTE: "FAIR" INDICATES FEW OR NO CLOUDS BELOW 12,000 FEET WITH NO
SIGNIFICANT WEATHER AND/OR OBSTRUCTIONS TO VISIBILITY. N/A MEANS
CURRENT SKY AND/OR WEATHER CONDITIONS ARE NOT AVAILABLE.

MNZ060>063-068>070-031700-
   Twin Cities Metro

CITY           SKY/WX    TMP DP  RH WIND       PRES   REMARKS
TWIN CITIES    PTSUNNY   74  70  87 E12       29.92S
ST PAUL        PTSUNNY   74  71  91 SE9       29.93R
CRYSTAL        MOSUNNY   79  70  74 E13       29.90S
BLAINE         CLOUDY    75  72  88 E8        29.93R FOG
LAKEVILLE      CLOUDY    72  72 100 E6        29.92S
EDEN PRAIRIE   CLOUDY    75  70  84 E8        29.91R
SOUTH ST PAUL  CLOUDY    75  71  85 E5        29.93R
LAKE ELMO      CLOUDY    72  72 100 E7        29.95R FOG
$$
MNZ001>005-007-008-013>017-022>024-027-028-031700-
   Northwest Minnesota

CITY           SKY/WX    TMP DP  RH WIND       PRES   REMARKS
BEMIDJI        PTSUNNY   74  65  75 SE16      29.90F
HALLOCK        MOSUNNY   81  72  74 SE21G29   29.76F
ROSEAU         PTSUNNY   72  66  83 SE13      29.85S
WARROAD        CLOUDY    70  66  88 SE13      29.87S
THIEF RVR FALL SUNNY     79  70  73 SE16G22   29.82F
CROOKSTON      SUNNY     81  72  74 S21G28    29.79F
FOSSTON        SUNNY     81  66  61 SE14G24   29.85S
DETROIT LAKES  MOSUNNY   77  68  73 SE18G25   29.87F
MOORHEAD       SUNNY     81  72  74 SE21      29.81S
PARK RAPIDS    PTSUNNY   78  67  68 SE12      29.90F
MAHNOMEN       FAIR      79  70  73 SE13G21   29.84S
$$
MNZ006-009>011-018-025>026-031700-
   North Central Minnesota

CITY           SKY/WX    TMP DP  RH WIND       PRES   REMARKS
BAUDETTE       CLOUDY    70  64  81 SE15G21   29.89F
FLAG ISLAND    CLOUDY    68  64  88 S22       29.87S
INTL FALLS     SUNNY     73  63  70 SE12      29.94F
WASKISH        SUNNY     73  68  83 SE8       29.90F
BIG FORK       MOSUNNY   73  64  73 S6        29.96S
LONGVILLE      SUNNY     73  64  73 SE7       29.94S
GRAND RAPIDS     N/A     70  63  78 SE8       29.97S
CRANE LAKE     SUNNY     72  63  73 S6        29.98S
ORR            SUNNY     73  59  60 SE8       29.94F
COOK           SUNNY     72  63  73 SE7       29.98S
WALKER         FAIR      72  65  76 SE8       29.92S
$$
MNZ012-019>021-037-031700-
   Northeast Minnesota

CITY           SKY/WX    TMP DP  RH WIND       PRES   REMARKS
DULUTH         FOG       62  62 100 E9        30.00S VSB 1/4
ELY            SUNNY     73  61  64 SE8       30.00R
HIBBING        MOSUNNY   69  63  81 SE10      29.98F
EVELETH        SUNNY     72  64  78 SE7       30.00S
DULUTH HARBOR  FOG       61  57  88 NE10      30.01S VSB 1/2
TWO HARBORS    CLOUDY    66  61  82 E7        30.00R HAZE
SILVER BAY     CLOUDY    66  63  88 NE5       30.00S FOG
GRAND MARAIS     N/A     62  55  77 E5        30.01S
G MARAIS ARPRT SUNNY     72  52  49 SE6       30.05F
$$
MNZ029>031-032-039>041-046>048-054>057-064-031700-
   West Central Minnesota

CITY           SKY/WX    TMP DP  RH WIND       PRES   REMARKS
FERGUS FALLS   SUNNY     79  70  73 SE16G23   29.83S
WHEATON        MOSUNNY   73  70  88 SE14      29.85S
MORRIS         CLOUDY    73  72  94 SE13G18   29.85S FOG
ALEXANDRIA     CLOUDY    72  70  93 SE15      29.91S
ELBOW LAKE     FAIR      77  71  81 SE16G22   29.85S
WADENA         CLOUDY    73  68  83 SE13      29.90S
GLENWOOD       CLOUDY    72  70  94 E14       29.91R FOG
APPLETON       CLOUDY    75  70  83 E13       29.85S
BENSON         CLOUDY    77  70  78 S9        29.87S
ORTONVILLE     CLOUDY    72  70  94 SE12      29.84S
MADISON        SUNNY     79  72  78 SE10      29.85S
WILLMAR        CLOUDY    73  72  94 E10       29.90S
$$
MNZ033>034-036-042>043-049>051-058-059-031700-
   Central Minnesota

CITY           SKY/WX    TMP DP  RH WIND       PRES   REMARKS
ST CLOUD       CLOUDY    75  70  84 E10       29.92R
SAUK CENTRE    CLOUDY    73  70  91 SE9       29.91S
PAYNESVILLE    CLOUDY    72  70  95 E8        29.91S FOG
AITKIN         SUNNY     75  64  69 SE7       29.94S
PINE RIVER     SUNNY     73  64  73 SE13      29.96S
BRAINERD       CLOUDY    69  64  84 SE8       29.94S
STAPLES        CLOUDY    75  66  73 SE8       29.91S
LONG PRAIRIE   CLOUDY    72  68  88 SE8G16    29.92S
LITTLE FALLS   PTSUNNY   75  66  73 SE7       29.92S
LITCHFIELD     CLOUDY    72  72 100 E9        29.91S FOG
BUFFALO        CLOUDY    75  70  84 E7        29.93R
MAPLE LAKE     CLOUDY    74  73  95 E3        29.93R FOG
$$
MNZ037-044-045-052-053-031700-
   East Central Minnesota

CITY           SKY/WX    TMP DP  RH WIND       PRES   REMARKS
PRINCETON      MOSUNNY   77  70  78 E6        29.93S
MORA           CLOUDY    70  68  94 E7        29.97S
CAMBRIDGE      CLOUDY    73  63  68 E6        29.93R
RUSH CITY      CLOUDY    71  68  92 NE3       29.95S
MOOSE LAKE     CLOUDY    64  61  88 E7        29.97S
HINCKLEY       FAIR      73  66  78 E7        29.96S
CLOQUET        CLOUDY    63  61  94 E9        30.00R
MCGREGOR       SUNNY     70  63  78 E9        29.97S
$$
MNZ071>073-080-081-089-090-097-098-031700-
   Southwest Minnesota

CITY           SKY/WX    TMP DP  RH WIND       PRES   REMARKS
MONTEVIDEO     PTSUNNY   79  73  83 S9        29.88S
GRANITE FALLS  SUNNY     77  72  83 E7        29.88S
CANBY          CLOUDY    72  71  96 SE8       29.87R FOG
MARSHALL       SUNNY     79  70  73 SE9       29.87S
REDWOOD FALLS  SUNNY     78  72  81 E6        29.87S
OLIVIA         CLOUDY    72  70  94 SE7       29.88S
PIPESTONE      SUNNY     79  70  73 SE7       29.87S
WINDOM         SUNNY     81  70  69 CALM      29.89S
WORTHINGTON    SUNNY     79  70  73 S5        29.89R
JACKSON        SUNNY     81  72  74 SE6       29.90S
TRACY          SUNNY     80  73  77 SE7       29.88R
SLAYTON        SUNNY     79  73  82 CALM      29.89S
$$
MNZ065>067-074>077-082>085-091>093-031700-
   South Central Minnesota

CITY           SKY/WX    TMP DP  RH WIND       PRES   REMARKS
MANKATO        SUNNY     79  72  78 SE6       29.90S
NEW ULM        SUNNY     79  73  83 S6        29.88S
ST JAMES       SUNNY     81  73  78 SE3       29.90R
FAIRMONT       SUNNY     79  70  73 SE7       29.89S
GLENCOE        CLOUDY    76  73  91 E8        29.91R
FARIBAULT      SUNNY     81  72  74 E3        29.92S
OWATONNA       SUNNY     81  72  74 CALM      29.92S
WASECA         SUNNY     77  70  78 SE5       29.92S
ALBERT LEA     SUNNY     81  73  78 SE5       29.92R
$$
MNZ078>079-086>088-094>096-031700-
   Southeast Minnesota

CITY           SKY/WX    TMP DP  RH WIND       PRES   REMARKS
ROCHESTER      SUNNY     81  72  74 E7        29.94S
RED WING       CLOUDY    75  72  88 E6        29.93R
STANTON        MOSUNNY   77  72  83 E5        29.92R
DODGE CENTER   SUNNY     81  72  74 SE3       29.93S
WINONA         SUNNY     79  70  73 SE7       29.93R
AUSTIN         SUNNY     81  72  74 CALM      29.93R
PRESTON        SUNNY     79  69  72 CALM      29.95S
$$
ABBREVIATIONS USED IN REMARKS
   TC - TEMPERATURES IN CELSIUS
  WCI - WIND CHILL INDEX
   HX - HEAT INDEX
  VSB - VISIBILITY
$$



USA.gov is the U.S. government's official web portal to all federal, state and local government web resources and services.